ARP149 LIML-LIRA

Flight info

Callsign ARP149
Flight time 0h 47m
Altitude 33000
Route EKPAL DCT PRT DCT GITOD
Aircraft C700/M-SBDGHM1RWXY/LB2

Departure

Time 2026-05-04 15:50
Airport Milano Linate Airport (LIML)

Arrival

Time 2026-05-04 16:38
Airport Ciampino–G. B. Pastine International Airport (LIRA)
Time Latitude Longitude Altitude Speed Heading
2026-05-04 15:34 45.45178 9.28127 354 ft 0 kts 116°
2026-05-04 15:42 45.45184 9.28110 361 ft 3 kts 116°
2026-05-04 15:42 45.45193 9.28083 358 ft 3 kts 116°
2026-05-04 15:42 45.45203 9.28059 358 ft 3 kts 145°
2026-05-04 15:42 45.45222 9.28050 354 ft 2 kts 190°
2026-05-04 15:44 45.45214 9.28048 354 ft 7 kts 187°
2026-05-04 15:44 45.45136 9.28053 356 ft 13 kts 175°
2026-05-04 15:44 45.45029 9.28063 354 ft 17 kts 176°
2026-05-04 15:45 45.44943 9.27991 356 ft 16 kts 256°
2026-05-04 15:45 45.44854 9.27936 359 ft 18 kts 168°
2026-05-04 15:45 45.44719 9.27949 355 ft 21 kts 178°
2026-05-04 15:45 45.44561 9.27965 355 ft 24 kts 173°
2026-05-04 15:46 45.44422 9.27985 355 ft 16 kts 175°
2026-05-04 15:46 45.44315 9.27997 355 ft 9 kts 175°
2026-05-04 15:46 45.44235 9.28004 355 ft 13 kts 179°
2026-05-04 15:46 45.44128 9.28009 356 ft 17 kts 174°
2026-05-04 15:47 45.44040 9.28020 355 ft 6 kts 174°
2026-05-04 15:47 45.43986 9.28026 356 ft 11 kts 175°
2026-05-04 15:47 45.43849 9.28042 358 ft 27 kts 174°
2026-05-04 15:47 45.43682 9.28063 355 ft 24 kts 176°
2026-05-04 15:48 45.43574 9.28073 359 ft 8 kts 177°
2026-05-04 15:48 45.43477 9.28074 355 ft 17 kts 199°
2026-05-04 15:48 45.43442 9.27959 355 ft 0 kts 270°
2026-05-04 15:49 45.43442 9.27947 355 ft 8 kts 268°
2026-05-04 15:49 45.43474 9.27828 360 ft 16 kts 329°
2026-05-04 15:49 45.43498 9.27816 358 ft 0 kts 349°
2026-05-04 15:50 45.43510 9.27814 360 ft 18 kts 352°
2026-05-04 15:50 45.44037 9.27748 353 ft 131 kts 355°
2026-05-04 15:50 45.45168 9.27612 720 ft 178 kts 354°
2026-05-04 15:50 45.46051 9.27532 1168 ft 201 kts 356°
2026-05-04 15:51 45.47528 9.28026 2601 ft 226 kts 33°
2026-05-04 15:51 45.48419 9.29838 4037 ft 249 kts 73°
2026-05-04 15:51 45.48448 9.32486 4990 ft 280 kts 102°
2026-05-04 15:51 45.47557 9.34893 5012 ft 274 kts 135°
2026-05-04 15:52 45.45990 9.36399 5076 ft 278 kts 153°
2026-05-04 15:52 45.44224 9.37431 6810 ft 274 kts 160°
2026-05-04 15:52 45.42450 9.38415 8782 ft 273 kts 158°
2026-05-04 15:52 45.40734 9.39577 10776 ft 276 kts 158°
2026-05-04 15:53 45.38820 9.40407 12109 ft 298 kts 178°
2026-05-04 15:53 45.36713 9.40088 13822 ft 306 kts 189°
2026-05-04 15:53 45.34577 9.40397 15246 ft 323 kts 162°
2026-05-04 15:53 45.32632 9.42112 16733 ft 337 kts 144°
2026-05-04 15:54 45.30868 9.44383 18184 ft 348 kts 139°
2026-05-04 15:54 45.29076 9.46769 19433 ft 356 kts 141°
2026-05-04 15:54 45.27155 9.49028 20645 ft 360 kts 145°
2026-05-04 15:54 45.25139 9.51207 21793 ft 366 kts 145°
2026-05-04 15:55 45.23106 9.53516 22964 ft 372 kts 143°
2026-05-04 15:55 45.20973 9.55531 23982 ft 374 kts 159°
2026-05-04 15:55 45.18427 9.56223 24931 ft 374 kts 179°
2026-05-04 15:55 45.15823 9.56628 25840 ft 382 kts 172°
2026-05-04 15:56 45.13200 9.57706 26726 ft 392 kts 160°
2026-05-04 15:56 45.10665 9.59369 27597 ft 400 kts 156°
2026-05-04 15:56 45.08227 9.61356 28427 ft 407 kts 153°
2026-05-04 15:56 45.05698 9.63163 29228 ft 412 kts 157°
2026-05-04 15:57 45.03100 9.65021 30066 ft 419 kts 158°
2026-05-04 15:57 45.00428 9.66773 30758 ft 424 kts 160°
2026-05-04 15:57 44.97683 9.68479 31448 ft 429 kts 160°
2026-05-04 15:57 44.95009 9.70218 32083 ft 435 kts 159°
2026-05-04 15:58 44.92255 9.72063 32710 ft 440 kts 159°
2026-05-04 15:58 44.89456 9.73896 33073 ft 450 kts 160°
2026-05-04 15:58 44.86544 9.75760 33076 ft 468 kts 160°
2026-05-04 15:58 44.83527 9.77714 33085 ft 485 kts 159°
2026-05-04 15:59 44.77322 9.81777 33079 ft 492 kts 159°
2026-05-04 15:59 44.71128 9.85821 33082 ft 491 kts 156°
2026-05-04 16:00 44.65544 9.91565 33066 ft 506 kts 139°
2026-05-04 16:00 44.60643 9.98658 33064 ft 504 kts 138°
2026-05-04 16:01 44.55739 10.05712 33071 ft 506 kts 137°
2026-05-04 16:01 44.50826 10.12793 33080 ft 507 kts 138°
2026-05-04 16:02 44.46023 10.19984 33081 ft 508 kts 135°
2026-05-04 16:03 44.38944 10.31054 33081 ft 507 kts 135°
2026-05-04 16:03 44.34231 10.38409 33077 ft 507 kts 135°
2026-05-04 16:04 44.29483 10.45778 33084 ft 512 kts 135°
2026-05-04 16:04 44.22344 10.56839 33095 ft 509 kts 135°
2026-05-04 16:05 44.17627 10.64118 33100 ft 509 kts 135°
2026-05-04 16:06 44.10466 10.75135 33122 ft 512 kts 135°
2026-05-04 16:07 44.00889 10.89804 33103 ft 511 kts 135°
2026-05-04 16:08 43.91259 11.04474 33085 ft 516 kts 135°
2026-05-04 16:09 43.78899 11.22399 33075 ft 512 kts 145°
2026-05-04 16:10 43.67842 11.34791 33078 ft 496 kts 144°
2026-05-04 16:11 43.57032 11.46841 33100 ft 499 kts 144°
2026-05-04 16:12 43.40746 11.64890 32552 ft 493 kts 144°
2026-05-04 16:13 43.36455 11.69641 28114 ft 439 kts 144°
2026-05-04 16:13 43.31671 11.74872 24118 ft 442 kts 143°
2026-05-04 16:14 43.27010 11.80026 21658 ft 421 kts 143°
2026-05-04 16:14 43.22499 11.84957 19220 ft 406 kts 143°
2026-05-04 16:15 43.16048 11.92019 15683 ft 384 kts 143°
2026-05-04 16:16 43.11823 11.96630 15130 ft 404 kts 143°
2026-05-04 16:16 43.05232 12.03812 15136 ft 404 kts 143°
2026-05-04 16:17 43.00853 12.08565 15132 ft 401 kts 143°
2026-05-04 16:18 42.94922 12.15007 15116 ft 323 kts 144°
2026-05-04 16:18 42.93200 12.16866 15119 ft 311 kts 144°
2026-05-04 16:19 42.88004 12.22477 15125 ft 320 kts 144°
2026-05-04 16:19 42.84525 12.26233 15120 ft 317 kts 144°
2026-05-04 16:20 42.79245 12.31731 15120 ft 318 kts 152°
2026-05-04 16:20 42.75416 12.34747 15127 ft 318 kts 151°
2026-05-04 16:21 42.69433 12.37734 13528 ft 304 kts 182°
2026-05-04 16:22 42.65409 12.37959 13017 ft 274 kts 175°
2026-05-04 16:22 42.59788 12.38952 11548 ft 267 kts 175°
2026-05-04 16:23 42.54338 12.39826 10224 ft 259 kts 174°
2026-05-04 16:24 42.47715 12.40886 10129 ft 233 kts 174°
2026-05-04 16:25 42.44456 12.41410 10128 ft 235 kts 174°
2026-05-04 16:26 42.38069 12.42428 9136 ft 223 kts 174°
2026-05-04 16:26 42.33280 12.43187 9131 ft 233 kts 174°
2026-05-04 16:27 42.30092 12.43696 8504 ft 230 kts 174°
2026-05-04 16:28 42.25582 12.44414 7631 ft 227 kts 173°
2026-05-04 16:28 42.20918 12.45154 6794 ft 223 kts 173°
2026-05-04 16:29 42.14849 12.46113 6002 ft 215 kts 173°
2026-05-04 16:30 42.10339 12.46826 5023 ft 210 kts 172°
2026-05-04 16:31 42.07344 12.47303 4052 ft 213 kts 173°
2026-05-04 16:31 42.02949 12.47997 3095 ft 201 kts 173°
2026-05-04 16:32 41.98913 12.48636 3002 ft 179 kts 173°
2026-05-04 16:33 41.96584 12.49003 2992 ft 163 kts 173°
2026-05-04 16:33 41.94372 12.49455 2985 ft 161 kts 158°
2026-05-04 16:34 41.92503 12.50767 2963 ft 146 kts 154°
2026-05-04 16:34 41.91614 12.51397 2782 ft 142 kts 153°
2026-05-04 16:35 41.88953 12.53246 2206 ft 142 kts 154°
2026-05-04 16:35 41.86304 12.55070 1628 ft 142 kts 156°
2026-05-04 16:36 41.85426 12.55698 1437 ft 145 kts 154°
2026-05-04 16:36 41.83941 12.56700 1107 ft 139 kts 156°
2026-05-04 16:37 41.82234 12.57885 737 ft 137 kts 158°
2026-05-04 16:37 41.81400 12.58479 563 ft 136 kts 156°
2026-05-04 16:37 41.80037 12.59407 387 ft 65 kts 154°
2026-05-04 16:38 41.79649 12.59629 383 ft 11 kts 236°
2026-05-04 16:39 41.79798 12.59369 387 ft 18 kts 315°
2026-05-04 16:39 41.79678 12.59312 387 ft 10 kts 135°
2026-05-04 16:40 41.79682 12.59351 387 ft 0 kts 54°